sat.trackr.live / text

‹ back to catalog

JILIN-1 GAOFEN 3I

NORAD 46461 · 2020-065H

PAYLOAD ACTIVE UNKNOWN

§ Identity

Operator
Country
PRC
Launch date
2020-09-15
Launch site
SEAL
Launch vehicle
Mass (kg)
RCS (m²)

External: N2YO · Heavens-Above · Gunter

§ Orbital elements

Epoch: 2026-05-25T04:06:42.181920Z

Period
90.14 min
Inclination
97.2187°
Eccentricity
0.0008103
Mean motion
15.97512166 rev/d
Perigee alt
275.9 km
Apogee alt
286.7 km
Semi-major
6,659.5 km
B*
1.0617e-3
RAAN
205.9609°
Arg perigee
173.5598°
Mean anomaly
186.5785°
Rev number
31,668

§ Raw data

JILIN-1 GAOFEN 3I1 46461U 20065H   26145.17132155  .00468825  93585-4  10617-2 0  99912 46461  97.2187 205.9609 0008103 173.5598 186.5785 15.97512166316685

JSON: /api/v1/satellites/46461 · /tle

For live sub-satellite position, see the globe view (requires WebGL).

§ Visibility from observer

Set your observer location to see the next 7 days of passes ≥ 10°. The values pass through the URL so the page stays shareable.

No JS? Fill the form by hand. The geolocation button needs JavaScript.